Year,Month,Day,Hour,Minute,Value (Times are PST for temperature in C)
2015,07,05,00,00,16.40
2015,07,05,00,01,16.30
2015,07,05,00,02,16.30
2015,07,05,00,03,16.30
2015,07,05,00,04,16.30
2015,07,05,00,05,16.30
2015,07,05,00,06,16.20
2015,07,05,00,07,16.20
2015,07,05,00,08,16.20
2015,07,05,00,09,16.20
2015,07,05,00,10,16.20
2015,07,05,00,11,16.20
2015,07,05,00,12,16.10
2015,07,05,00,13,16.10
2015,07,05,00,14,16.10
2015,07,05,00,15,16.10
2015,07,05,00,16,16.00
2015,07,05,00,17,16.00
2015,07,05,00,18,16.00
2015,07,05,00,19,16.00
2015,07,05,00,20,15.90
2015,07,05,00,21,16.00
2015,07,05,00,22,15.90
2015,07,05,00,23,15.90
2015,07,05,00,24,15.90
2015,07,05,00,25,15.90
2015,07,05,00,26,15.90
2015,07,05,00,27,15.90
2015,07,05,00,28,15.90
2015,07,05,00,29,15.80
2015,07,05,00,30,15.80
2015,07,05,00,31,15.80
2015,07,05,00,32,15.80
2015,07,05,00,33,15.80
2015,07,05,00,34,15.80
2015,07,05,00,35,15.80
2015,07,05,00,36,15.70
2015,07,05,00,37,15.70
2015,07,05,00,38,15.70
2015,07,05,00,39,15.70
2015,07,05,00,40,15.70
2015,07,05,00,41,15.70
2015,07,05,00,42,15.70
2015,07,05,00,43,15.70
2015,07,05,00,44,15.70
2015,07,05,00,45,15.70
2015,07,05,00,46,15.70
2015,07,05,00,47,15.60
2015,07,05,00,48,15.60
2015,07,05,00,49,15.60
2015,07,05,00,50,15.60
2015,07,05,00,51,15.60
2015,07,05,00,52,15.60
2015,07,05,00,53,15.50
2015,07,05,00,54,15.50
2015,07,05,00,55,15.50
2015,07,05,00,56,15.40
2015,07,05,00,57,15.40
2015,07,05,00,58,15.40
2015,07,05,00,59,15.40
2015,07,05,01,00,15.40
2015,07,05,01,01,15.30
2015,07,05,01,02,15.30
2015,07,05,01,03,15.30
2015,07,05,01,04,15.30
2015,07,05,01,05,15.30
2015,07,05,01,06,15.30
2015,07,05,01,07,15.30
2015,07,05,01,08,15.30
2015,07,05,01,09,15.30
2015,07,05,01,10,15.20
2015,07,05,01,11,15.20
2015,07,05,01,12,15.20
2015,07,05,01,13,15.20
2015,07,05,01,14,15.20
2015,07,05,01,15,15.20
2015,07,05,01,16,15.20
2015,07,05,01,17,15.20
2015,07,05,01,18,15.20
2015,07,05,01,19,15.20
2015,07,05,01,20,15.10
2015,07,05,01,21,15.10
2015,07,05,01,22,15.10
2015,07,05,01,23,15.10
2015,07,05,01,24,15.10
2015,07,05,01,25,15.00
2015,07,05,01,26,15.00
2015,07,05,01,27,15.00
2015,07,05,01,28,15.00
2015,07,05,01,29,15.00
2015,07,05,01,30,15.00
2015,07,05,01,31,15.00
2015,07,05,01,32,15.00
2015,07,05,01,33,15.00
2015,07,05,01,34,15.00
2015,07,05,01,35,15.00
2015,07,05,01,36,15.00
2015,07,05,01,37,15.00
2015,07,05,01,38,15.00
2015,07,05,01,39,15.00
2015,07,05,01,40,15.00
2015,07,05,01,41,15.00
2015,07,05,01,42,15.00
2015,07,05,01,43,15.00
2015,07,05,01,44,15.00
2015,07,05,01,45,15.00
2015,07,05,01,46,15.00
2015,07,05,01,47,15.00
2015,07,05,01,48,14.90
2015,07,05,01,49,14.90
2015,07,05,01,50,14.90
2015,07,05,01,51,14.80
2015,07,05,01,52,14.80
2015,07,05,01,53,14.80
2015,07,05,01,54,14.80
2015,07,05,01,55,14.80
2015,07,05,01,56,14.70
2015,07,05,01,57,14.70
2015,07,05,01,58,14.70
2015,07,05,01,59,14.70
2015,07,05,02,00,14.70
2015,07,05,02,01,14.70
2015,07,05,02,02,14.70
2015,07,05,02,03,14.70
2015,07,05,02,04,14.70
2015,07,05,02,05,14.70
2015,07,05,02,06,14.70
2015,07,05,02,07,14.70
2015,07,05,02,08,14.70
2015,07,05,02,09,14.60
2015,07,05,02,10,14.60
2015,07,05,02,11,14.60
2015,07,05,02,12,14.60
2015,07,05,02,13,14.60
2015,07,05,02,14,14.60
2015,07,05,02,15,14.60
2015,07,05,02,16,14.60
2015,07,05,02,17,14.60
2015,07,05,02,18,14.60
2015,07,05,02,19,14.60
2015,07,05,02,20,14.60
2015,07,05,02,21,14.50
2015,07,05,02,22,14.50
2015,07,05,02,23,14.50
2015,07,05,02,24,14.50
2015,07,05,02,25,14.40
2015,07,05,02,26,14.40
2015,07,05,02,27,14.40
2015,07,05,02,28,14.40
2015,07,05,02,29,14.40
2015,07,05,02,30,14.40
2015,07,05,02,31,14.40
2015,07,05,02,32,14.40
2015,07,05,02,33,14.40
2015,07,05,02,34,14.40
2015,07,05,02,35,14.40
2015,07,05,02,36,14.40
2015,07,05,02,37,14.40
2015,07,05,02,38,14.40
2015,07,05,02,39,14.40
2015,07,05,02,40,14.40
2015,07,05,02,41,14.40
2015,07,05,02,42,14.40
2015,07,05,02,43,14.40
2015,07,05,02,44,14.30
2015,07,05,02,45,14.30
2015,07,05,02,46,14.30
2015,07,05,02,47,14.30
2015,07,05,02,48,14.30
2015,07,05,02,49,14.30
2015,07,05,02,50,14.30
2015,07,05,02,51,14.30
2015,07,05,02,52,14.30
2015,07,05,02,53,14.30
2015,07,05,02,54,14.30
2015,07,05,02,55,14.30
2015,07,05,02,56,14.30
2015,07,05,02,57,14.30
2015,07,05,02,58,14.30
2015,07,05,02,59,14.30
2015,07,05,03,00,14.30
2015,07,05,03,01,14.30
2015,07,05,03,02,14.30
2015,07,05,03,03,14.30
2015,07,05,03,04,14.30
2015,07,05,03,05,14.30
2015,07,05,03,06,14.30
2015,07,05,03,07,14.20
2015,07,05,03,08,14.20
2015,07,05,03,09,14.20
2015,07,05,03,10,14.20
2015,07,05,03,11,14.20
2015,07,05,03,12,14.20
2015,07,05,03,13,14.20
2015,07,05,03,14,14.20
2015,07,05,03,15,14.20
2015,07,05,03,16,14.20
2015,07,05,03,17,14.20
2015,07,05,03,18,14.20
2015,07,05,03,19,14.30
2015,07,05,03,20,14.30
2015,07,05,03,21,14.30
2015,07,05,03,22,14.30
2015,07,05,03,23,14.20
2015,07,05,03,24,14.30
2015,07,05,03,25,14.30
2015,07,05,03,26,14.30
2015,07,05,03,27,14.30
2015,07,05,03,28,14.30
2015,07,05,03,29,14.30
2015,07,05,03,30,14.30
2015,07,05,03,31,14.30
2015,07,05,03,32,14.30
2015,07,05,03,33,14.30
2015,07,05,03,34,14.30
2015,07,05,03,35,14.30
2015,07,05,03,36,14.20
2015,07,05,03,37,14.30
2015,07,05,03,38,14.40
2015,07,05,03,39,14.50
2015,07,05,03,40,14.50
2015,07,05,03,41,14.60
2015,07,05,03,42,14.60
2015,07,05,03,43,14.70
2015,07,05,03,44,14.70
2015,07,05,03,45,14.80
2015,07,05,03,46,14.80
2015,07,05,03,47,14.80
2015,07,05,03,48,14.80
2015,07,05,03,49,14.80
2015,07,05,03,50,14.90
2015,07,05,03,51,14.90
2015,07,05,03,52,14.90
2015,07,05,03,53,15.00
2015,07,05,03,54,15.00
2015,07,05,03,55,15.00
2015,07,05,03,56,15.00
2015,07,05,03,57,15.00
2015,07,05,03,58,15.00
2015,07,05,03,59,15.00
2015,07,05,04,00,15.00
2015,07,05,04,01,15.10
2015,07,05,04,02,15.30
2015,07,05,04,03,15.50
2015,07,05,04,04,15.50
2015,07,05,04,05,15.60
2015,07,05,04,06,15.70
2015,07,05,04,07,15.70
2015,07,05,04,08,15.80
2015,07,05,04,09,15.80
2015,07,05,04,10,15.90
2015,07,05,04,11,15.90
2015,07,05,04,12,16.10
2015,07,05,04,13,16.30
2015,07,05,04,14,16.50
2015,07,05,04,15,16.70
2015,07,05,04,16,16.90
2015,07,05,04,17,17.00
2015,07,05,04,18,17.10
2015,07,05,04,19,17.30
2015,07,05,04,20,17.40
2015,07,05,04,21,17.50
2015,07,05,04,22,17.60
2015,07,05,04,23,17.70
2015,07,05,04,24,17.80
2015,07,05,04,25,17.90
2015,07,05,04,26,18.00
2015,07,05,04,27,18.10
2015,07,05,04,28,18.20
2015,07,05,04,29,18.20
2015,07,05,04,30,18.40
2015,07,05,04,31,18.50
2015,07,05,04,32,18.60
2015,07,05,04,33,18.70
2015,07,05,04,34,18.80
2015,07,05,04,35,18.90
2015,07,05,04,36,19.10
2015,07,05,04,37,19.30
2015,07,05,04,38,19.50
2015,07,05,04,39,19.70
2015,07,05,04,40,19.80
2015,07,05,04,41,20.00
2015,07,05,04,42,20.10
2015,07,05,04,43,20.30
2015,07,05,04,44,20.30
2015,07,05,04,45,20.40
2015,07,05,04,46,20.50
2015,07,05,04,47,20.60
2015,07,05,04,48,20.60
2015,07,05,04,49,20.60
2015,07,05,04,50,20.60
2015,07,05,04,51,20.70
2015,07,05,04,52,20.70
2015,07,05,04,53,20.70
2015,07,05,04,54,20.70
2015,07,05,04,55,20.60
2015,07,05,04,56,20.70
2015,07,05,04,57,20.70
2015,07,05,04,58,20.80
2015,07,05,04,59,20.80
2015,07,05,05,00,20.90
2015,07,05,05,01,21.00
2015,07,05,05,02,21.00
2015,07,05,05,03,21.00
2015,07,05,05,04,20.90
2015,07,05,05,05,21.00
2015,07,05,05,06,21.00
2015,07,05,05,07,21.10
2015,07,05,05,08,21.20
2015,07,05,05,09,21.30
2015,07,05,05,10,21.30
2015,07,05,05,11,21.30
2015,07,05,05,12,21.30
2015,07,05,05,13,21.30
2015,07,05,05,14,21.30
2015,07,05,05,15,21.30
2015,07,05,05,16,21.20
2015,07,05,05,17,21.20
2015,07,05,05,18,21.10
2015,07,05,05,19,21.10
2015,07,05,05,20,21.10
2015,07,05,05,21,21.10
2015,07,05,05,22,21.10
2015,07,05,05,23,21.10
2015,07,05,05,24,21.20
2015,07,05,05,25,21.20
2015,07,05,05,26,21.20
2015,07,05,05,27,21.20
2015,07,05,05,28,21.10
2015,07,05,05,29,21.10
2015,07,05,05,30,21.10
2015,07,05,05,31,21.00
2015,07,05,05,32,20.90
2015,07,05,05,33,20.80
2015,07,05,05,34,20.70
2015,07,05,05,35,20.60
2015,07,05,05,36,20.50
2015,07,05,05,37,20.40
2015,07,05,05,38,20.30
2015,07,05,05,39,20.30
2015,07,05,05,40,20.20
2015,07,05,05,41,20.20
2015,07,05,05,42,20.20
2015,07,05,05,43,20.20
2015,07,05,05,44,20.10
2015,07,05,05,45,20.10
2015,07,05,05,46,20.10
2015,07,05,05,47,20.10
2015,07,05,05,48,20.10
2015,07,05,05,49,20.00
2015,07,05,05,50,20.00
2015,07,05,05,51,20.00
2015,07,05,05,52,20.00
2015,07,05,05,53,20.00
2015,07,05,05,54,20.00
2015,07,05,05,55,19.90
2015,07,05,05,56,19.90
2015,07,05,05,57,19.90
2015,07,05,05,58,19.90
2015,07,05,05,59,19.90
2015,07,05,06,00,19.80
2015,07,05,06,01,19.80
2015,07,05,06,02,19.80
2015,07,05,06,03,19.80
2015,07,05,06,04,19.80
2015,07,05,06,05,19.90
2015,07,05,06,06,19.90
2015,07,05,06,07,19.90
2015,07,05,06,08,19.80
2015,07,05,06,09,19.90
2015,07,05,06,10,20.00
2015,07,05,06,11,20.00
2015,07,05,06,12,20.10
2015,07,05,06,13,20.20
2015,07,05,06,14,20.20
2015,07,05,06,15,20.30
2015,07,05,06,16,20.30
2015,07,05,06,17,20.30
2015,07,05,06,18,20.40
2015,07,05,06,19,20.40
2015,07,05,06,20,20.40
2015,07,05,06,21,20.50
2015,07,05,06,22,20.60
2015,07,05,06,23,20.60
2015,07,05,06,24,20.70
2015,07,05,06,25,20.70
2015,07,05,06,26,20.60
2015,07,05,06,27,20.60
2015,07,05,06,28,20.60
2015,07,05,06,29,20.60
2015,07,05,06,30,20.50
2015,07,05,06,31,20.50
2015,07,05,06,32,20.40
2015,07,05,06,33,20.40
2015,07,05,06,34,20.50
2015,07,05,06,35,20.60
2015,07,05,06,36,20.60
2015,07,05,06,37,20.60
2015,07,05,06,38,20.60
2015,07,05,06,39,20.60
2015,07,05,06,40,20.60
2015,07,05,06,41,20.80
2015,07,05,06,42,20.80
2015,07,05,06,43,20.90
2015,07,05,06,44,20.90
2015,07,05,06,45,21.00
2015,07,05,06,46,21.10
2015,07,05,06,47,21.10
2015,07,05,06,48,21.10
2015,07,05,06,49,21.10
2015,07,05,06,50,21.00
2015,07,05,06,51,21.10
2015,07,05,06,52,21.10
2015,07,05,06,53,21.10
2015,07,05,06,54,21.00
2015,07,05,06,55,21.00
2015,07,05,06,56,20.90
2015,07,05,06,57,20.90
2015,07,05,06,58,20.90
2015,07,05,06,59,20.80
2015,07,05,07,00,20.80
2015,07,05,07,01,20.80
2015,07,05,07,02,20.70
2015,07,05,07,03,20.60
2015,07,05,07,04,20.60
2015,07,05,07,05,20.60
2015,07,05,07,06,20.60
2015,07,05,07,07,20.60
2015,07,05,07,08,20.60
2015,07,05,07,09,20.60
2015,07,05,07,10,20.50
2015,07,05,07,11,20.50
2015,07,05,07,12,20.50
2015,07,05,07,13,20.40
2015,07,05,07,14,20.40
2015,07,05,07,15,20.40
2015,07,05,07,16,20.40
2015,07,05,07,17,20.40
2015,07,05,07,18,20.40
2015,07,05,07,19,20.50
2015,07,05,07,20,20.50
2015,07,05,07,21,20.60
2015,07,05,07,22,20.60
2015,07,05,07,23,20.70
2015,07,05,07,24,20.70
2015,07,05,07,25,20.80
2015,07,05,07,26,20.90
2015,07,05,07,27,21.00
2015,07,05,07,28,21.10
2015,07,05,07,29,21.20
2015,07,05,07,30,21.30
2015,07,05,07,31,21.40
2015,07,05,07,32,21.40
2015,07,05,07,33,21.60
2015,07,05,07,34,21.70
2015,07,05,07,35,21.80
2015,07,05,07,36,21.90
2015,07,05,07,37,22.00
2015,07,05,07,38,22.10
2015,07,05,07,39,22.10
2015,07,05,07,40,22.20
2015,07,05,07,41,22.20
2015,07,05,07,42,22.20
2015,07,05,07,43,22.30
2015,07,05,07,44,22.30
2015,07,05,07,45,22.30
2015,07,05,07,46,22.40
2015,07,05,07,47,22.40
2015,07,05,07,48,22.40
2015,07,05,07,49,22.40
2015,07,05,07,50,22.40
2015,07,05,07,51,22.50
2015,07,05,07,52,22.50
2015,07,05,07,53,22.60
2015,07,05,07,54,22.60
2015,07,05,07,55,22.60
2015,07,05,07,56,22.60
2015,07,05,07,57,22.60
2015,07,05,07,58,22.70
2015,07,05,07,59,22.70
2015,07,05,08,00,22.80
2015,07,05,08,01,22.80
2015,07,05,08,02,22.80
2015,07,05,08,03,22.90
2015,07,05,08,04,22.90
2015,07,05,08,05,22.90
2015,07,05,08,06,23.00
2015,07,05,08,07,23.10
2015,07,05,08,08,23.10
2015,07,05,08,09,23.10
2015,07,05,08,10,23.10
2015,07,05,08,11,23.10
2015,07,05,08,12,23.10
2015,07,05,08,13,23.20
2015,07,05,08,14,23.20
2015,07,05,08,15,23.20
2015,07,05,08,16,23.30
2015,07,05,08,17,23.30
2015,07,05,08,18,23.40
2015,07,05,08,19,23.40
2015,07,05,08,20,23.50
2015,07,05,08,21,23.50
2015,07,05,08,22,23.50
2015,07,05,08,23,23.60
2015,07,05,08,24,23.60
2015,07,05,08,25,23.70
2015,07,05,08,26,23.70
2015,07,05,08,27,23.80
2015,07,05,08,28,23.80
2015,07,05,08,29,23.90
2015,07,05,08,30,23.90
2015,07,05,08,31,23.90
2015,07,05,08,32,24.00
2015,07,05,08,33,24.00
2015,07,05,08,34,24.10
2015,07,05,08,35,24.10
2015,07,05,08,36,24.20
2015,07,05,08,37,24.20
2015,07,05,08,38,24.20
2015,07,05,08,39,24.30
2015,07,05,08,40,24.30
2015,07,05,08,41,24.30
2015,07,05,08,42,24.30
2015,07,05,08,43,24.40
2015,07,05,08,44,24.40
2015,07,05,08,45,24.40
2015,07,05,08,46,24.50
2015,07,05,08,47,24.50
2015,07,05,08,48,24.60
2015,07,05,08,49,24.60
2015,07,05,08,50,24.60
2015,07,05,08,51,24.70
2015,07,05,08,52,24.70
2015,07,05,08,53,24.70
2015,07,05,08,54,24.80
2015,07,05,08,55,24.80
2015,07,05,08,56,24.80
2015,07,05,08,57,24.90
2015,07,05,08,58,24.90
2015,07,05,08,59,24.90
2015,07,05,09,00,24.90
2015,07,05,09,01,25.00
2015,07,05,09,02,25.00
2015,07,05,09,03,25.00
2015,07,05,09,04,25.00
2015,07,05,09,05,25.10
2015,07,05,09,06,25.10
2015,07,05,09,07,25.10
2015,07,05,09,08,25.20
2015,07,05,09,09,25.20
2015,07,05,09,10,25.20
2015,07,05,09,11,25.20
2015,07,05,09,12,25.30
2015,07,05,09,13,25.30
2015,07,05,09,14,25.30
2015,07,05,09,15,25.30
2015,07,05,09,16,25.30
2015,07,05,09,17,25.30
2015,07,05,09,18,25.30
2015,07,05,09,19,25.30
2015,07,05,09,20,25.30
2015,07,05,09,21,25.30
2015,07,05,09,22,25.30
2015,07,05,09,23,25.30
2015,07,05,09,24,25.30
2015,07,05,09,25,25.30
2015,07,05,09,26,25.40
2015,07,05,09,27,25.40
2015,07,05,09,28,25.40
2015,07,05,09,29,25.40
2015,07,05,09,30,25.40
2015,07,05,09,31,25.40
2015,07,05,09,32,25.40
2015,07,05,09,33,25.40
2015,07,05,09,34,25.50
2015,07,05,09,35,25.50
2015,07,05,09,36,25.50
2015,07,05,09,37,25.50
2015,07,05,09,38,25.60
2015,07,05,09,39,25.60
2015,07,05,09,40,25.60
2015,07,05,09,41,25.60
2015,07,05,09,42,25.60
2015,07,05,09,43,25.60
2015,07,05,09,44,25.60
2015,07,05,09,45,25.50
2015,07,05,09,46,25.50
2015,07,05,09,47,25.50
2015,07,05,09,48,25.50
2015,07,05,09,49,25.50
2015,07,05,09,50,25.50
2015,07,05,09,51,25.50
2015,07,05,09,52,25.50
2015,07,05,09,53,25.50
2015,07,05,09,54,25.50
2015,07,05,09,55,25.50
2015,07,05,09,56,25.50
2015,07,05,09,57,25.50
2015,07,05,09,58,25.50
2015,07,05,09,59,25.50
2015,07,05,10,00,25.50
2015,07,05,10,01,25.50
2015,07,05,10,02,25.50
2015,07,05,10,03,25.50
2015,07,05,10,04,25.50
2015,07,05,10,05,25.50
2015,07,05,10,06,25.50
2015,07,05,10,07,25.50
2015,07,05,10,08,25.60
2015,07,05,10,09,25.60
2015,07,05,10,10,25.60
2015,07,05,10,11,25.60
2015,07,05,10,12,25.60
2015,07,05,10,13,25.60
2015,07,05,10,14,25.60
2015,07,05,10,15,25.60
2015,07,05,10,16,25.70
2015,07,05,10,17,25.70
2015,07,05,10,18,25.70
2015,07,05,10,19,25.70
2015,07,05,10,20,25.70
2015,07,05,10,21,25.70
2015,07,05,10,22,25.70
2015,07,05,10,23,25.70
2015,07,05,10,24,25.70
2015,07,05,10,25,25.80
2015,07,05,10,26,25.80
2015,07,05,10,27,25.80
2015,07,05,10,28,25.80
2015,07,05,10,29,25.80
2015,07,05,10,30,25.80
2015,07,05,10,31,25.80
2015,07,05,10,32,25.70
2015,07,05,10,33,25.70
2015,07,05,10,34,25.70
2015,07,05,10,35,25.70
2015,07,05,10,36,25.70
2015,07,05,10,37,25.60
2015,07,05,10,38,25.60
2015,07,05,10,39,25.60
2015,07,05,10,40,25.50
2015,07,05,10,41,25.50
2015,07,05,10,42,25.40
2015,07,05,10,43,25.40
2015,07,05,10,44,25.30
2015,07,05,10,45,25.30
2015,07,05,10,46,25.20
2015,07,05,10,47,25.20
2015,07,05,10,48,25.10
2015,07,05,10,49,25.10
2015,07,05,10,50,25.10
2015,07,05,10,51,25.10
2015,07,05,10,52,25.00
2015,07,05,10,53,25.00
2015,07,05,10,54,24.90
2015,07,05,10,55,24.90
2015,07,05,10,56,24.90
2015,07,05,10,57,24.90
2015,07,05,10,58,24.80
2015,07,05,10,59,24.80
2015,07,05,11,00,24.80
2015,07,05,11,01,24.80
2015,07,05,11,02,24.80
2015,07,05,11,03,24.80
2015,07,05,11,04,24.70
2015,07,05,11,05,24.70
2015,07,05,11,06,24.70
2015,07,05,11,07,24.70
2015,07,05,11,08,24.70
2015,07,05,11,09,24.70
2015,07,05,11,10,24.70
2015,07,05,11,11,24.70
2015,07,05,11,12,24.70
2015,07,05,11,13,24.70
2015,07,05,11,14,24.70
2015,07,05,11,15,24.70
2015,07,05,11,16,24.70
2015,07,05,11,17,24.70
2015,07,05,11,18,24.70
2015,07,05,11,19,24.70
2015,07,05,11,20,24.70
2015,07,05,11,21,24.70
2015,07,05,11,22,24.70
2015,07,05,11,23,24.70
2015,07,05,11,24,24.70
2015,07,05,11,25,24.70
2015,07,05,11,26,24.70
2015,07,05,11,27,24.70
2015,07,05,11,28,24.70
2015,07,05,11,29,24.70
2015,07,05,11,30,24.70
2015,07,05,11,31,24.70
2015,07,05,11,32,24.70
2015,07,05,11,33,24.70
2015,07,05,11,34,24.70
2015,07,05,11,35,24.80
2015,07,05,11,36,24.70
2015,07,05,11,37,24.80
2015,07,05,11,38,24.80
2015,07,05,11,39,24.80
2015,07,05,11,40,24.80
2015,07,05,11,41,24.80
2015,07,05,11,42,24.80
2015,07,05,11,43,24.80
2015,07,05,11,44,24.80
2015,07,05,11,45,24.80
2015,07,05,11,46,24.80
2015,07,05,11,47,24.80
2015,07,05,11,48,24.80
2015,07,05,11,49,24.80
2015,07,05,11,50,24.90
2015,07,05,11,51,24.90
2015,07,05,11,52,24.90
2015,07,05,11,53,24.90
2015,07,05,11,54,24.90
2015,07,05,11,55,24.90
2015,07,05,11,56,24.90
2015,07,05,11,57,24.90
2015,07,05,11,58,24.90
2015,07,05,11,59,24.90
2015,07,05,12,00,25.00
2015,07,05,12,01,25.00
2015,07,05,12,02,25.00
2015,07,05,12,03,25.00
2015,07,05,12,04,25.00
2015,07,05,12,05,25.10
2015,07,05,12,06,25.10
2015,07,05,12,07,25.10
2015,07,05,12,08,25.10
2015,07,05,12,09,25.20
2015,07,05,12,10,25.20
2015,07,05,12,11,25.20
2015,07,05,12,12,25.30
2015,07,05,12,13,25.30
2015,07,05,12,14,25.30
2015,07,05,12,15,25.30
2015,07,05,12,16,25.40
2015,07,05,12,17,25.40
2015,07,05,12,18,25.40
2015,07,05,12,19,25.40
2015,07,05,12,20,25.50
2015,07,05,12,21,25.50
2015,07,05,12,22,25.50
2015,07,05,12,23,25.60
2015,07,05,12,24,25.60
2015,07,05,12,25,25.60
2015,07,05,12,26,25.60
2015,07,05,12,27,25.60
2015,07,05,12,28,25.60
2015,07,05,12,29,25.70
2015,07,05,12,30,25.70
2015,07,05,12,31,25.70
2015,07,05,12,32,25.70
2015,07,05,12,33,25.70
2015,07,05,12,34,25.80
2015,07,05,12,35,25.80
2015,07,05,12,36,25.80
2015,07,05,12,37,25.80
2015,07,05,12,38,25.90
2015,07,05,12,39,25.90
2015,07,05,12,40,25.90
2015,07,05,12,41,25.90
2015,07,05,12,42,25.90
2015,07,05,12,43,25.90
2015,07,05,12,44,25.90
2015,07,05,12,45,25.90
2015,07,05,12,46,25.90
2015,07,05,12,47,25.90
2015,07,05,12,48,25.90
2015,07,05,12,49,25.90
2015,07,05,12,50,25.90
2015,07,05,12,51,25.90
2015,07,05,12,52,25.90
2015,07,05,12,53,25.90
2015,07,05,12,54,25.90
2015,07,05,12,55,25.90
2015,07,05,12,56,26.00
2015,07,05,12,57,26.00
2015,07,05,12,58,26.10
2015,07,05,12,59,26.10
2015,07,05,13,00,26.20
2015,07,05,13,01,26.20
2015,07,05,13,02,26.20
2015,07,05,13,03,26.30
2015,07,05,13,04,26.30
2015,07,05,13,05,26.30
2015,07,05,13,06,26.30
2015,07,05,13,07,26.40
2015,07,05,13,08,26.40
2015,07,05,13,09,26.40
2015,07,05,13,10,26.40
2015,07,05,13,11,26.40
2015,07,05,13,12,26.40
2015,07,05,13,13,26.40
2015,07,05,13,14,26.40
2015,07,05,13,15,26.40
2015,07,05,13,16,26.40
2015,07,05,13,17,26.40
2015,07,05,13,18,26.50
2015,07,05,13,19,26.50
2015,07,05,13,20,26.50
2015,07,05,13,21,26.50
2015,07,05,13,22,26.60
2015,07,05,13,23,26.60
2015,07,05,13,24,26.60
2015,07,05,13,25,26.60
2015,07,05,13,26,26.70
2015,07,05,13,27,26.70
2015,07,05,13,28,26.80
2015,07,05,13,29,26.80
2015,07,05,13,30,26.80
2015,07,05,13,31,26.90
2015,07,05,13,32,26.90
2015,07,05,13,33,26.90
2015,07,05,13,34,27.00
2015,07,05,13,35,27.00
2015,07,05,13,36,27.00
2015,07,05,13,37,27.10
2015,07,05,13,38,27.10
2015,07,05,13,39,27.10
2015,07,05,13,40,27.20
2015,07,05,13,41,27.20
2015,07,05,13,42,27.20
2015,07,05,13,43,27.20
2015,07,05,13,44,27.20
2015,07,05,13,45,27.30
2015,07,05,13,46,27.30
2015,07,05,13,47,27.30
2015,07,05,13,48,27.30
2015,07,05,13,49,27.30
2015,07,05,13,50,27.30
2015,07,05,13,51,27.30
2015,07,05,13,52,27.40
2015,07,05,13,53,27.40
2015,07,05,13,54,27.50
2015,07,05,13,55,27.50
2015,07,05,13,56,27.60
2015,07,05,13,57,27.60
2015,07,05,13,58,27.70
2015,07,05,13,59,27.70
2015,07,05,14,00,27.80
2015,07,05,14,01,27.80
2015,07,05,14,02,27.90
2015,07,05,14,03,27.90
2015,07,05,14,04,27.90
2015,07,05,14,05,28.00
2015,07,05,14,06,28.00
2015,07,05,14,07,28.00
2015,07,05,14,08,28.10
2015,07,05,14,09,28.10
2015,07,05,14,10,28.20
2015,07,05,14,11,28.20
2015,07,05,14,12,28.20
2015,07,05,14,13,28.30
2015,07,05,14,14,28.30
2015,07,05,14,15,28.30
2015,07,05,14,16,28.30
2015,07,05,14,17,28.30
2015,07,05,14,18,28.30
2015,07,05,14,19,28.30
2015,07,05,14,20,28.40
2015,07,05,14,21,28.40
2015,07,05,14,22,28.40
2015,07,05,14,23,28.50
2015,07,05,14,24,28.60
2015,07,05,14,25,28.60
2015,07,05,14,26,28.70
2015,07,05,14,27,28.80
2015,07,05,14,28,28.80
2015,07,05,14,29,28.80
2015,07,05,14,30,28.90
2015,07,05,14,31,28.90
2015,07,05,14,32,29.00
2015,07,05,14,33,29.00
2015,07,05,14,34,29.10
2015,07,05,14,35,29.10
2015,07,05,14,36,29.10
2015,07,05,14,37,29.20
2015,07,05,14,38,29.20
2015,07,05,14,39,29.20
2015,07,05,14,40,29.20
2015,07,05,14,41,29.20
2015,07,05,14,42,29.20
2015,07,05,14,43,29.20
2015,07,05,14,44,29.20
2015,07,05,14,45,29.20
2015,07,05,14,46,29.20
2015,07,05,14,47,29.20
2015,07,05,14,48,29.20
2015,07,05,14,49,29.20
2015,07,05,14,50,29.20
2015,07,05,14,51,29.20
2015,07,05,14,52,29.20
2015,07,05,14,53,29.20
2015,07,05,14,54,29.20
2015,07,05,14,55,29.20
2015,07,05,14,56,29.30
2015,07,05,14,57,29.30
2015,07,05,14,58,29.30
2015,07,05,14,59,29.30
2015,07,05,15,00,29.30
2015,07,05,15,01,29.30
2015,07,05,15,02,29.30
2015,07,05,15,03,29.30
2015,07,05,15,04,29.30
2015,07,05,15,05,29.30
2015,07,05,15,06,29.40
2015,07,05,15,07,29.40
2015,07,05,15,08,29.40
2015,07,05,15,09,29.40
2015,07,05,15,10,29.50
2015,07,05,15,11,29.50
2015,07,05,15,12,29.50
2015,07,05,15,13,29.60
2015,07,05,15,14,29.60
2015,07,05,15,15,29.60
2015,07,05,15,16,29.60
2015,07,05,15,17,29.60
2015,07,05,15,18,29.60
2015,07,05,15,19,29.70
2015,07,05,15,20,29.70
2015,07,05,15,21,29.70
2015,07,05,15,22,29.60
2015,07,05,15,23,29.60
2015,07,05,15,24,29.60
2015,07,05,15,25,29.60
2015,07,05,15,26,29.60
2015,07,05,15,27,29.60
2015,07,05,15,28,29.60
2015,07,05,15,29,29.60
2015,07,05,15,30,29.60
2015,07,05,15,31,29.50
2015,07,05,15,32,29.50
2015,07,05,15,33,29.50
2015,07,05,15,34,29.40
2015,07,05,15,35,29.40
2015,07,05,15,36,29.40
2015,07,05,15,37,29.50
2015,07,05,15,38,29.50
2015,07,05,15,39,29.60
2015,07,05,15,40,29.60
2015,07,05,15,41,29.70
2015,07,05,15,42,29.70
2015,07,05,15,43,29.80
2015,07,05,15,44,29.80
2015,07,05,15,45,29.90
2015,07,05,15,46,29.90
2015,07,05,15,47,29.90
2015,07,05,15,48,29.90
2015,07,05,15,49,29.90
2015,07,05,15,50,29.90
2015,07,05,15,51,29.90
2015,07,05,15,52,29.90
2015,07,05,15,53,29.90
2015,07,05,15,54,29.90
2015,07,05,15,55,30.00
2015,07,05,15,56,30.00
2015,07,05,15,57,30.00
2015,07,05,15,58,29.90
2015,07,05,15,59,29.90
2015,07,05,16,00,29.90
2015,07,05,16,01,29.90
2015,07,05,16,02,29.90
2015,07,05,16,03,29.90
2015,07,05,16,04,29.90
2015,07,05,16,05,29.90
2015,07,05,16,06,29.90
2015,07,05,16,07,29.80
2015,07,05,16,08,29.80
2015,07,05,16,09,29.80
2015,07,05,16,10,29.70
2015,07,05,16,11,29.70
2015,07,05,16,12,29.70
2015,07,05,16,13,29.70
2015,07,05,16,14,29.70
2015,07,05,16,15,29.70
2015,07,05,16,16,29.70
2015,07,05,16,17,29.70
2015,07,05,16,18,29.70
2015,07,05,16,19,29.70
2015,07,05,16,20,29.70
2015,07,05,16,21,29.80
2015,07,05,16,22,29.80
2015,07,05,16,23,29.80
2015,07,05,16,24,29.80
2015,07,05,16,25,29.80
2015,07,05,16,26,29.80
2015,07,05,16,27,29.80
2015,07,05,16,28,29.80
2015,07,05,16,29,29.80
2015,07,05,16,30,29.80
2015,07,05,16,31,29.80
2015,07,05,16,32,29.80
2015,07,05,16,33,29.80
2015,07,05,16,34,29.90
2015,07,05,16,35,29.90
2015,07,05,16,36,29.90
2015,07,05,16,37,29.90
2015,07,05,16,38,29.90
2015,07,05,16,39,29.90
2015,07,05,16,40,29.90
2015,07,05,16,41,29.90
2015,07,05,16,42,29.90
2015,07,05,16,43,29.90
2015,07,05,16,44,29.90
2015,07,05,16,45,29.90
2015,07,05,16,46,29.90
2015,07,05,16,47,29.90
2015,07,05,16,48,29.90
2015,07,05,16,49,29.90
2015,07,05,16,50,29.90
2015,07,05,16,51,30.00
2015,07,05,16,52,30.00
2015,07,05,16,53,30.00
2015,07,05,16,54,30.00
2015,07,05,16,55,30.00
2015,07,05,16,56,30.10
2015,07,05,16,57,30.10
2015,07,05,16,58,30.10
2015,07,05,16,59,30.10
2015,07,05,17,00,30.10
2015,07,05,17,01,30.10
2015,07,05,17,02,30.10
2015,07,05,17,03,30.10
2015,07,05,17,04,30.10
2015,07,05,17,05,30.10
2015,07,05,17,06,30.00
2015,07,05,17,07,30.00
2015,07,05,17,08,30.00
2015,07,05,17,09,30.00
2015,07,05,17,10,30.00
2015,07,05,17,11,29.90
2015,07,05,17,12,29.90
2015,07,05,17,13,29.90
2015,07,05,17,14,29.90
2015,07,05,17,15,29.80
2015,07,05,17,16,29.80
2015,07,05,17,17,29.80
2015,07,05,17,18,29.80
2015,07,05,17,19,29.80